Flight Track Log - Related Links

Times and Time Zones

All times are in EDT time to prevent confusion due to time zone crossing. See the ASQ4504 flight status page for this flight to view local times or setup timezone preferences in your user account.

Time Position Orientation Groundspeed Altitude Reporting Facility
EDT Latitude Longitude Course Direction KTS MPH feet Rate Location/Type
Sun 10:25:11 AM 35.1853 -80.9664 225° Southwest 173 199 1,700  Level Atlanta Center
Sun 10:26:36 AM 35.1306 -81.0344 225° Southwest 261 300 5,000 2,357 Climbing Atlanta Center
Sun 10:27:03 AM 35.1211 -81.0703 252° West 260 299 6,100 2,828 Climbing Atlanta Center
Sun 10:28:03 AM 35.1742 -81.1117 327° Northwest 296 341 9,100 2,700 Climbing Atlanta Center
Sun 10:29:03 AM 35.2486 -81.0836 17° North 261 300 11,500 1,750 Climbing Atlanta Center
Sun 10:30:03 AM 35.3417 -81.0444 19° North 319 367 12,600 1,550 Climbing Atlanta Center
Sun 10:31:03 AM 35.4367 -81.0081 17° North 349 402 14,600 2,050 Climbing Atlanta Center
Sun 10:32:03 AM 35.5394 -81.0247 352° North 356 410 16,700 1,600 Climbing Atlanta Center
Sun 10:33:03 AM 35.6400 -81.0464 350° North 362 417 17,800 1,550 Climbing Atlanta Center
Sun 10:34:03 AM 35.7450 -81.0681 350° North 372 428 19,800 2,200 Climbing Atlanta Center
Sun 10:35:03 AM 35.8456 -81.0903 350° North 372 428 22,200 2,300 Climbing Atlanta Center
Sun 10:36:03 AM 35.9461 -81.1097 351° North 372 428 24,400 2,300 Climbing Atlanta Center
Sun 10:37:03 AM 36.0406 -81.1292 351° North 354 407 26,800 2,050 Climbing Atlanta Center
Sun 10:38:03 AM 36.1328 -81.1517 349° North 345 397 28,500 1,400 Climbing Atlanta Center
Sun 10:39:03 AM 36.2356 -81.1736 350° North 340 391 29,600 1,050 Climbing Atlanta Center
Sun 10:40:03 AM 36.3361 -81.1958 350° North 345 397 30,600 1,050 Climbing Atlanta Center
Sun 10:41:03 AM 36.4408 -81.2156 351° North 361 415 31,700 700 Climbing Atlanta Center
Sun 10:42:03 AM 36.5497 -81.2400 350° North 377 434 32,000 150 Climbing Atlanta Center
Sun 10:43:03 AM 36.6672 -81.2644 351° North 405 466 32,000  Level Atlanta Center
Sun 10:44:03 AM 36.7761 -81.2917 349° North 443 510 32,000 -36 Level Atlanta Center
Sun 10:45:51 AM 36.9936 -81.3364 351° North 441 507 31,900 -600 Descending Indianapolis Center
Sun 10:46:53 AM 37.1250 -81.3642 350° North 433 498 30,300 -1,463 Descending Indianapolis Center
Sun 10:47:54 AM 37.2383 -81.3886 350° North 418 481 28,900 -1,122 Descending Indianapolis Center
Sun 10:48:56 AM 37.3506 -81.4139 350° North 405 466 28,000 -435 Descending Indianapolis Center
Sun 10:49:58 AM 37.4608 -81.4378 350° North 410 472 28,000  Level Indianapolis Center
Sun 10:50:59 AM 37.5944 -81.4681 350° North 418 481 28,000  Level Indianapolis Center
Sun 10:52:01 AM 37.7097 -81.4914 351° North 425 489 28,000  Level Indianapolis Center
Sun 10:53:02 AM 37.8283 -81.5200 349° North 423 487 28,000  Level Indianapolis Center
Sun 10:54:04 AM 37.9461 -81.5453 350° North 426 490 28,000  Level Indianapolis Center
Sun 10:55:06 AM 38.0636 -81.5703 350° North 426 490 28,000  Level Indianapolis Center
Sun 10:56:07 AM 38.1825 -81.5978 350° North 430 495 28,000  Level Indianapolis Center
Sun 10:57:09 AM 38.3008 -81.6247 350° North 432 497 28,000  Level Indianapolis Center
Sun 10:58:11 AM 38.4206 -81.6531 349° North 435 501 28,000  Level Indianapolis Center
Sun 10:59:12 AM 38.5414 -81.6803 350° North 435 501 28,000  Level Indianapolis Center
Sun 11:00:14 AM 38.6644 -81.7078 350° North 438 504 28,000  Level Indianapolis Center
Sun 11:01:15 AM 38.7872 -81.7353 350° North 436 502 28,000  Level Indianapolis Center
Sun 11:02:17 AM 38.9311 -81.7678 350° North 430 495 28,000  Level Indianapolis Center
Sun 11:03:19 AM 39.0525 -81.7958 350° North 438 504 28,000  Level Indianapolis Center
Sun 11:04:20 AM 39.1725 -81.8242 350° North 435 501 28,000 -488 Level Indianapolis Center
Sun 11:05:22 AM 39.2933 -81.8508 350° North 438 504 27,000 -1,210 Descending Indianapolis Center
Sun 11:06:24 AM 39.4117 -81.8792 350° North 431 496 25,500 -1,317 Descending Indianapolis Center
Sun 11:07:25 AM 39.5294 -81.9058 350° North 428 493 24,300 -732 Descending Indianapolis Center
Sun 11:08:27 AM 39.6478 -81.9175 356° North 425 489 24,000 -145 Descending Indianapolis Center
Sun 11:09:29 AM 39.7744 -81.9314 355° North 413 475 24,000 -439 Level Indianapolis Center
Sun 11:10:30 AM 39.8903 -81.9431 356° North 414 476 23,100 -585 Descending Indianapolis Center
Sun 11:11:32 AM 40.0053 -81.9556 355° North 412 474 22,800 -629 Descending Indianapolis Center
Sun 11:12:34 AM 40.1183 -81.9675 355° North 405 466 21,800 -976 Descending Indianapolis Center
Sun 11:13:35 AM 40.2428 -81.9817 355° North 396 456 20,800 -1,171 Descending Indianapolis Center
Sun 11:14:37 AM 40.3525 -81.9936 355° North 393 452 19,400 -1,300 Descending Indianapolis Center
Sun 11:15:35 AM 40.4419 -82.0017 356° North 379 436 18,200 -1,271 Descending Cleveland Center
Sun 11:16:35 AM 40.5439 -82.0119 356° North 365 420 16,900 -1,350 Descending Cleveland Center
Sun 11:17:35 AM 40.6406 -81.9458 27° Northeast 365 420 15,500 -1,373 Descending Cleveland Center
Sun 11:17:58 AM 40.6828 -81.9056 36° Northeast 393 452 15,000 -1,400 Descending Cleveland Center
Sun 11:18:35 AM 40.7269 -81.8600 38° Northeast 365 420 14,100 -1,770 Descending Cleveland Center
Sun 11:18:59 AM 40.7672 -81.8194 37° Northeast 378 435 13,200 -4,100 Descending Cleveland Center
Sun 11:19:35 AM 40.8092 -81.7764 38° Northeast 371 427 10,000 -1,672 Descending Cleveland Center
Sun 11:20:00 AM 40.8492 -81.7358 37° Northeast 370 426 11,500 900 Climbing Cleveland Center
Sun 11:20:35 AM 40.8953 -81.7203 14° North 356 410 10,900 -1,200 Descending Cleveland Center
Sun 11:21:00 AM 40.9411 -81.7319 349° North 332 382 10,300 -900 Descending Cleveland Center
Sun 11:21:35 AM 40.9889 -81.7356 357° North 320 368 10,000 -295 Descending Cleveland Center
Sun 11:22:01 AM 41.0433 -81.7339 North 349 402 10,000  Level Cleveland Center
Sun 11:22:35 AM 41.0933 -81.7347 359° North 329 379 10,000  Level Cleveland Center
Sun 11:23:02 AM 41.1369 -81.7356 359° North 341 392 10,000 -100 Level Cleveland Center
Sun 11:23:35 AM 41.1828 -81.7336 North 335 386 9,900 -667 Descending Cleveland Center
Sun 11:23:56 AM 41.2100 -81.7342 359° North 264 304 9,400 -1,400 Descending Cleveland Center
Sun 11:24:35 AM 41.2558 -81.7322 North 286 329 8,500 -1,433 Descending Cleveland Center
Sun 11:25:03 AM 41.2892 -81.7356 356° North 261 300 7,800 -1,200 Descending Cleveland Center
Sun 11:25:35 AM 41.3267 -81.7250 12° North 256 295 7,300 -984 Descending Cleveland Center
Sun 11:26:04 AM 41.3539 -81.7172 12° North 240 276 6,800 -1,200 Descending Cleveland Center
Sun 11:26:35 AM 41.3833 -81.7094 11° North 240 276 6,100 -1,377 Descending Cleveland Center
Sun 11:27:05 AM 41.4167 -81.6989 13° North 190 219 5,400 -1,100 Descending Cleveland Center
Sun 11:27:35 AM 41.4375 -81.6967 North 213 245 5,000 -1,000 Descending Cleveland Center
Sun 11:27:59 AM 41.4647 -81.6914 North 189 217 4,500 -1,482 Descending Cleveland Center
Sun 11:29:00 AM 41.4767 -81.7361 290° West 139 160 2,900 -1,082 Descending Cleveland Center
Sun 11:30:01 AM 41.4575 -81.7828 241° Southwest 135 155 2,300 -709 Descending Cleveland Center
Sun 11:31:07 AM 41.4300 -81.8211 226° Southwest 133 153 1,400 -818 Descending Cleveland Center

Login

Don't have an account? Register now (free) for customized features, flight alerts, and more!